www.pogodaiklimat.ru

Погода и климат >> Архив погоды >> Япония >> Oita


ПОГОДА в Oita

  • Прогноз погоды в Oita
  • Монитор погоды в Oita
  • Климат города

АРХИВ ПОГОДЫ в Oita

Время (UTC), дата Ветер
(напр.,м/с)
 
Видим.   Явления Облачность Т
(С)
Тd
(С)
f
(%)
Тe
(С)
Тes
(С)
Комфортность P
(гПа)
Po
(гПа)
Тmin
(С)
Tmax
(С)
R
(мм)
R24
(мм)
S
(см)
10 12.12 СЗ 5 н/о н/о +9.0 +1.2 58 +6 +6 1024.3 1022.6
11 12.12 СЗ 4 н/о н/о +8.5 +1.0 59 +6 +6 1024.7 1023.0
12 12.12 СЗ 5 30 км {ливн. осадки} 1/1
[Cu Sc]
+8.5 0.0 55 +6 +6 1024.4 1022.7 +12.7 0.0
14 12.12 СЗ 3 н/о н/о +8.7 -0.1 54 +7 +7 1025.0 1023.3
13 12.12 СЗ 4 н/о н/о +8.5 -0.5 53 +6 +6 1025.0 1023.3
15 12.12 З 2 н/о н/о +7.5 -0.2 58 +6 +6 1024.9 1023.2
16 12.12 Ю 2 н/о н/о +6.4 +0.3 65 +5 +5 1025.0 1023.3
17 12.12 ЮЗ 2 н/о н/о +6.0 +0.4 67 +4 +4 1025.5 1023.8
18 12.12 Ю 3 30 км 9/9
[Cu Sc]
+5.9 +0.7 69 +3 +3 1025.3 1023.6
20 12.12 Ю 2 н/о н/о +5.8 +1.0 71 +4 +4 1025.4 1023.7
19 12.12 Ю 2 н/о н/о +5.6 +1.0 72 +3 +3 1025.3 1023.6
21 12.12 ЮЗ 3 25 км 9/9
[Cu Sc]
+5.7 +1.1 72 +3 +3 1026.2 1024.5
22 12.12 ЮЗ 2 н/о н/о +6.6 +0.3 64 +5 +5 1026.5 1024.8
23 12.12 ЮЗ 2 н/о н/о +6.3 +0.4 66 +4 +4 1026.6 1024.9
00 13.12 ЮЗ 4 30 км 1/1
[Cu Sc Ci fib]
+8.2 +0.2 57 +6 +7 1027.3 1025.6 +5.3
02 13.12 С 3 н/о н/о +10.6 -0.8 45 +9 +9 1026.9 1025.2
01 13.12 З 5 н/о н/о +10.2 -1.8 43 +8 +8 1027.4 1025.7
03 13.12 СЗ 4 30 км 3/3
[Cu med, cong]
+10.5 -1.5 43 +8 +12 1025.7 1024.0
04 13.12 СЗ 4 н/о н/о +12.2 -0.3 42 +11 +11 1025.1 1023.5
05 13.12 СЗ 4 н/о н/о +11.0 -1.4 42 +9 +9 1024.8 1023.1
06 13.12 З 6 30 км 4/4
[Cu med, cong]
+11.1 -2.0 40 +9 +9 1024.8 1023.1
08 13.12 ЮЗ 3 н/о н/о +9.2 +0.1 53 +8 +8 1025.7 1024.0
07 13.12 З 4 н/о н/о +10.4 -1.3 44 +8 +8 1025.2 1023.5
09 13.12 З 4 30 км 5/5
[Cu Sc]
+8.6 -0.4 53 +6 +6 1026.2 1024.5
10 13.12 З 3 н/о н/о +7.7 -0.8 55 +5 +5 1026.9 1025.2
11 13.12 СЗ 2 н/о н/о +7.4 -1.0 55 +6 +6 1026.8 1025.1
12 13.12 ЮВ 2 30 км 9/9
[Cu Sc]
+7.0 -0.2 60 +5 +5 1027.0 1025.3 +12.2
14 13.12 Ю 2 н/о н/о +7.3 +0.3 61 +6 +6 1026.9 1025.2
13 13.12 ЮЗ 2 н/о н/о +8.0 -0.2 56 +6 +6 1026.8 1025.1
15 13.12 З 2 н/о н/о +8.5 +0.5 57 +7 +7 1027.0 1025.3
16 13.12 З 6 н/о н/о +8.4 +0.6 58 +5 +5 1026.7 1025.0
17 13.12 СЗ 5 н/о н/о +9.4 +0.1 52 +7 +7 1027.1 1025.4
18 13.12 ЮЗ 2 25 км 9/9
[Cu Sc]
+8.3 -0.2 55 +7 +7 1027.1 1025.4
20 13.12 СЗ 4 н/о н/о +8.8 +1.2 59 +6 +6 1027.3 1025.6
19 13.12 СЗ 4 н/о н/о +9.1 +0.6 55 +7 +7 1027.2 1025.5
21 13.12 С 4 20 км слабый ливневой дождь 10/10
[Cu med, cong]
+8.1 +2.1 66 +5 +5 1028.0 1026.3
22 13.12 С 3 н/о н/о +7.6 +2.7 71 +5 +5 1028.7 1027.0
23 13.12 С 4 н/о н/о +7.4 +0.8 63 +5 +5 1029.6 1027.9
00 14.12 СЗ 4 20 км {ливн. осадки} 9/8
[Cu Sc Ac trans]
+7.4 +0.4 61 +4 +4 1030.5 1028.8 +6.9 0.0
02 14.12 СЗ 5 н/о н/о +8.4 -1.4 50 +5 +5 1030.0 1028.3
01 14.12 СЗ 4 н/о н/о +8.3 -0.2 55 +6 +6 1030.4 1028.7
03 14.12 З 4 25 км 3/3
[Cu Sc]
+10.2 -2.5 41 +8 +12 1029.0 1027.3
04 14.12 СЗ 4 н/о н/о +10.3 -3.4 38 +8 +8 1028.0 1026.3
05 14.12 СЗ 4 н/о н/о +11.0 -2.4 39 +9 +9 1027.5 1025.8
06 14.12 СЗ 4 30 км 3/3
[Cu Sc Ci fib]
+10.8 -2.2 40 +9 +10 1027.5 1025.8
08 14.12 СЗ 4 н/о н/о +9.7 -2.0 44 +7 +7 1028.4 1026.7
07 14.12 СЗ 5 н/о н/о +10.4 -1.9 42 +8 +8 1028.0 1026.3
09 14.12 СЗ 5 30 км 1/1
[Cu med, cong]
+9.2 -1.5 47 +7 +7 1028.8 1027.1
10 14.12 СЗ 6 н/о н/о +8.7 -0.9 51 +5 +5 1029.1 1027.4
11 14.12 СЗ 4 н/о н/о +8.2 -0.5 54 +5 +5 1029.2 1027.5
12 14.12 СЗ 4 30 км 1/1
[Cu hum]
+8.5 +0.5 57 +6 +6 1029.7 1028.0 +11.8
14 14.12 СЗ 4 н/о н/о +8.2 +1.1 61 +5 +5 1030.1 1028.4
13 14.12 СЗ 4 н/о н/о +8.2 0.0 56 +6 +6 1029.9 1028.2
15 14.12 СЗ 3 н/о н/о +8.0 +1.0 61 +6 +6 1030.2 1028.5
16 14.12 СЗ 4 н/о н/о +7.8 +0.3 59 +5 +5 1030.3 1028.6
17 14.12 СЗ 3 н/о н/о +7.6 -0.6 56 +5 +5 1030.5 1028.8
18 14.12 ЮЗ 2 30 км ясно +5.4 -0.8 64 +4 +4 1030.6 1028.9
20 14.12 Ю 2 н/о н/о +3.4 -0.8 74 +1 +1 1030.4 1028.7
19 14.12 ЮЗ 2 н/о н/о +4.8 -1.4 64 +3 +3 1030.1 1028.4
21 14.12 Ю 3 30 км 4/4
[Sc]
+2.3 -0.6 81 -2 -2 1030.7 1029.0
22 14.12 Ю 3 н/о н/о +1.9 -0.5 84 -2 -2 1030.8 1029.1
23 14.12 Ю 2 н/о н/о +2.6 -0.5 80 -1 -1 1031.4 1029.7
00 15.12 Ю 3 30 км 3/3
[Cu Sc Ac trans Ci fib]
+5.0 +0.4 72 +2 +3 1031.9 1030.2 +1.8
02 15.12 СВ 1 н/о н/о +10.3 +2.9 60 +10 +10 1031.6 1029.9
01 15.12 Ю 2 н/о н/о +7.5 +1.1 64 +6 +6 1032.1 1030.4
03 15.12 СВ 2 30 км 3/3
[Cu Sc Ci fib]
+10.7 +1.8 54 +10 +15 1030.4 1028.7
04 15.12 С 2 н/о н/о +11.4 +0.8 48 +11 +11 1029.5 1027.8
05 15.12 В 2 н/о н/о +12.2 +1.2 47 +12 +12 1028.9 1027.2
06 15.12 СВ 3 30 км 1/1
[Cu Sc]
+11.9 +1.8 50 +11 +13 1028.7 1027.0
08 15.12 В 2 н/о н/о +10.8 +2.4 56 +10 +10 1028.4 1026.7
07 15.12 В 2 н/о н/о +11.4 +2.7 55 +11 +11 1028.7 1027.0
09 15.12 С 1 30 км 3/3
[Cu Sc]
+10.0 +2.4 59 +11 +11 1028.7 1027.0
10 15.12 Ю 2 н/о н/о +8.8 +3.2 68 +7 +7 1029.1 1027.4
11 15.12 ЮЗ 3 н/о н/о +7.5 +2.6 71 +5 +5 1029.5 1027.8
12 15.12 Ю 3 30 км 1/1
[Cu hum]
+6.3 +2.6 77 +3 +3 1029.5 1027.8 +12.5
14 15.12 Ю 4 н/о н/о +4.9 +1.9 81 +1 +1 1028.1 1026.4
13 15.12 Ю 4 н/о н/о +5.6 +2.3 79 +2 +2 1029.0 1027.3
15 15.12 Ю 4 н/о н/о +4.0 +1.9 86 -0 -0 1027.3 1025.6
16 15.12 Ю 4 н/о н/о +3.9 +1.6 85 -0 -0 1027.4 1025.7
17 15.12 Ю 3 н/о н/о +3.3 +1.7 89 -1 -1 1026.8 1025.1
18 15.12 Ю 4 30 км 1/0
[Ci fib]
+2.9 +1.3 89 -2 -2 1026.7 1025.0
20 15.12 Ю 4 н/о н/о +2.6 +1.0 89 -2 -2 1025.2 1023.5
19 15.12 Ю 3 н/о н/о +2.4 +1.1 91 -2 -2 1025.5 1023.8
21 15.12 Ю 3 20 км 9/1
[Cu hum Ci sp]
+2.9 +1.3 89 -1 -1 1025.0 1023.3
22 15.12 Ю 3 н/о н/о +3.1 +1.5 89 -1 -1 1024.6 1022.9
23 15.12 Ю 3 н/о н/о +3.8 +1.5 85 0 0 1023.9 1022.2
00 16.12 Ю 3 30 км 10/1
[Cu Sc Ac As]
+4.5 +2.0 84 +1 +2 1023.8 1022.1 +2.1
02 16.12 Ю 2 н/о н/о +5.9 +3.6 85 +3 +3 1023.2 1021.5
01 16.12 Ю 2 н/о н/о +5.3 +3.2 86 +3 +3 1024.0 1022.3
03 16.12 Ю 2 20 км слабый дождь 10/8
[Cu Sc Ac As]
+6.6 +4.6 87 +4 +5 1021.4 1019.7
04 16.12 Ю 2 н/о н/о +8.2 +6.5 89 +7 +7 1020.2 1018.5
05 16.12 Ю 1 н/о н/о +9.0 +7.6 91 +8 +8 1019.3 1017.6
06 16.12 Ю 1 15 км слабый дождь 10/8
[Cu Sc Ac As]
+10.1 +8.7 91 +10 +10 1018.4 1016.8 0.5
08 16.12 ЮЗ 1 н/о н/о +9.7 +9.3 97 +10 +10 1017.1 1015.5
07 16.12 ЮЗ 1 н/о н/о +10.0 +8.9 93 +10 +10 1017.7 1016.1
09 16.12 Ю 2 15 км в посл. час дождь 9/8
[Sc Ac As]
+9.9 +9.3 96 +9 +9 1016.8 1015.2
10 16.12 Ю 2 н/о н/о +9.8 +9.2 96 +8 +8 1016.2 1014.6
11 16.12 В 1 н/о н/о +9.6 +9.3 98 +9 +9 1016.4 1014.8
12 16.12 СЗ 3 15 км слабый дождь 10/4
[Cu Sc Ac As]
+10.7 +9.3 91 +9 +9 1016.5 1014.9 +10.8 3
14 16.12 С 3 н/о н/о +10.9 +8.8 87 +9 +9 1015.5 1013.9
13 16.12 СЗ 4 н/о н/о +11.1 +9.0 87 +9 +9 1016.3 1014.7
15 16.12 С 2 н/о н/о +11.0 +8.4 84 +10 +10 1014.7 1013.1
16 16.12 ЮЗ 2 н/о н/о +10.3 +8.9 91 +9 +9 1014.0 1012.4
17 16.12 З 1 н/о н/о +9.7 +9.1 96 +9 +9 1014.0 1012.4
18 16.12 ЮЗ 2 15 км {дождь} 9/3
[Sc Ac trans Ci sp]
+9.5 +8.7 95 +8 +8 1013.5 1011.9 0.0
20 16.12 З 2 н/о н/о +9.5 +7.3 86 +8 +8 1013.9 1012.3
19 16.12 С 3 н/о н/о +11.3 +6.9 74 +10 +10 1013.5 1011.9
21 16.12 ЮЗ 1 20 км 9/9
[Cu Sc]
+9.1 +7.7 91 +8 +8 1014.1 1012.5
22 16.12 Ю 2 н/о н/о +9.0 +7.6 91 +8 +8 1014.3 1012.7
23 16.12 З 4 н/о н/о +10.9 +5.2 68 +9 +9 1014.8 1013.2
00 17.12 СЗ 2 25 км 9/9
[Cu Sc]
+11.3 +3.8 60 +10 +11 1015.9 1014.3 +8.9 0.0
02 17.12 З 3 н/о н/о +12.2 +3.2 54 +11 +11 1015.9 1014.3
01 17.12 СЗ 5 н/о н/о +11.1 +3.9 61 +9 +9 1016.5 1014.9
03 17.12 З 5 25 км {ливн. осадки} 4/4
[Cu Sc]
+12.0 +0.2 44 +10 +12 1015.2 1013.6
04 17.12 З 5 н/о н/о +12.6 +1.3 46 +11 +11 1014.8 1013.2
05 17.12 З 6 н/о н/о +12.7 +0.8 44 +11 +11 1014.7 1013.1
06 17.12 З 5 25 км {ливн. осадки} 4/4
[Cu hum]
+12.9 -0.7 39 +11 +12 1014.7 1013.1 0.0
08 17.12 Ю 3 н/о н/о +11.1 -0.7 44 +10 +10 1015.9 1014.3
07 17.12 З 2 н/о н/о +11.9 -1.3 40 +11 +11 1015.4 1013.8
09 17.12 Ю 2 25 км 5/5
[Cu hum]
+10.3 +0.4 50 +10 +10 1016.5 1014.9
10 17.12 З 3 н/о н/о +9.9 +1.5 56 +8 +8 1017.0 1015.4
11 17.12 СЗ 1 н/о н/о +10.1 +1.5 55 +10 +10 1017.3 1015.7
12 17.12 С 2 25 км 9/9
[Cu med, cong]
+10.1 +1.5 55 +9 +9 1017.6 1016.0 +13.4 0.0
14 17.12 З 3 н/о н/о +9.7 -0.2 50 +8 +8 1018.3 1016.6
13 17.12 Ю 2 н/о н/о +9.7 +1.1 55 +9 +9 1017.8 1016.1
15 17.12 З 4 н/о н/о +9.6 0.0 51 +7 +7 1018.5 1016.8
16 17.12 З 5 н/о н/о +9.4 -1.0 48 +7 +7 1018.9 1017.2
17 17.12 З 3 н/о н/о +8.8 -0.8 51 +7 +7 1019.2 1017.5
18 17.12 З 4 25 км 1/1
[Cu hum]
+8.3 -0.2 55 +6 +6 1018.9 1017.2
20 17.12 ЮЗ 4 н/о н/о +8.6 -0.2 54 +6 +6 1019.4 1017.7
19 17.12 Ю 2 н/о н/о +8.0 +0.3 58 +6 +6 1018.9 1017.2
21 17.12 ЮЗ 4 25 км 1/1
[Cu hum]
+8.6 -1.0 51 +6 +6 1019.6 1017.9
22 17.12 З 4 н/о н/о +8.6 -1.2 50 +6 +6 1020.0 1018.3
23 17.12 З 3 н/о н/о +9.3 -2.0 45 +7 +7 1020.5 1018.8
00 18.12 ЮЗ 3 25 км 3/3
[Cu hum]
+10.4 -1.3 44 +9 +10 1021.1 1019.4 +7.5
02 18.12 СЗ 4 н/о н/о +12.0 -0.2 43 +10 +10 1020.9 1019.3
01 18.12 З 3 н/о н/о +11.0 -0.8 44 +10 +10 1021.2 1019.6
03 18.12 СЗ 3 30 км 3/3
[Cu med, cong]
+13.3 0.0 40 +13 +17 1019.9 1018.3
04 18.12 СЗ 3 н/о н/о +13.3 -1.4 36 +12 +12 1019.3 1017.7
05 18.12 З 5 н/о н/о +13.6 -1.2 36 +12 +12 1018.6 1017.0
06 18.12 З 5 25 км 4/4
[Cu med, cong]
+12.2 -1.7 38 +10 +11 1019.4 1017.8
08 18.12 З 3 н/о н/о +11.0 -1.7 41 +10 +10 1020.6 1019.0
07 18.12 З 5 н/о н/о +11.5 -1.6 40 +10 +10 1019.8 1018.2
09 18.12 З 4 30 км 3/3
[Cu hum]
+10.6 -0.8 45 +9 +9 1021.5 1019.8
10 18.12 ЮЗ 2 н/о н/о +10.0 -0.2 49 +9 +9 1021.8 1020.1
11 18.12 ЮВ 2 н/о н/о +8.2 +0.4 58 +7 +7 1022.4 1020.7
12 18.12 Ю 2 25 км 3/3
[Cu hum]
+7.7 +0.2 59 +6 +6 1022.8 1021.1 +14.4
14 18.12 Ю 1 н/о н/о +6.8 +0.9 66 +6 +6 1023.0 1021.3
13 18.12 Ю 2 н/о н/о +7.2 +0.6 63 +6 +6 1023.0 1021.3
15 18.12 ЮВ 2 н/о н/о +5.7 +1.8 76 +3 +3 1023.2 1021.5
16 18.12 Ю 3 н/о н/о +4.5 +1.5 81 +1 +1 1023.1 1021.4
17 18.12 Ю 4 н/о н/о +4.8 +1.5 79 +1 +1 1023.2 1021.5
18 18.12 Ю 2 25 км 1/1
[Cu hum]
+4.0 +1.4 83 +1 +1 1022.9 1021.2
20 18.12 ЮЗ 2 н/о н/о +3.2 +1.1 86 0 0 1022.4 1020.7
19 18.12 Ю 3 н/о н/о +3.7 +1.3 84 0 0 1022.5 1020.8
21 18.12 Ю 4 25 км ясно +2.7 +0.9 88 -2 -2 1023.1 1021.4
22 18.12 Ю 2 н/о н/о +3.3 +0.5 82 0 0 1023.7 1022.0
23 18.12 Ю 3 н/о н/о +3.5 +1.1 84 -0 -0 1024.3 1022.6
00 19.12 Ю 3 40 км ясно +6.2 +1.0 69 +4 +5 1025.0 1023.3 +2.6
02 19.12 ЮВ 2 н/о н/о +12.3 +1.0 46 +12 +12 1024.3 1022.7
01 19.12 ЮВ 1 н/о н/о +9.0 +2.1 62 +9 +9 1025.3 1023.6
03 19.12 СВ 2 30 км 1/1
[Cu hum Ac trans Ci fib]
+13.5 -0.9 37 +14 +20 1023.2 1021.6
04 19.12 СВ 1 н/о н/о +14.7 -0.2 36 +15 +15 1022.1 1020.5
05 19.12 СЗ 2 н/о н/о +15.6 +2.8 42 +16 +16 1021.2 1019.6
06 19.12 З 4 25 км 8/3
[Cu med, cong Ac trans Ci sp]
+15.4 +2.9 43 +15 +16 1021.6 1020.0
08 19.12 ЮЗ 3 н/о н/о +14.0 +4.0 51 +13 +13 1021.9 1020.3
07 19.12 З 3 н/о н/о +14.9 +3.4 46 +14 +14 1021.7 1020.1

 

Местоположение метеостанции Oita (Япония): широта 33.23 долгота 131.61 высота над уровнем моря 13 м.

В архиве по умолчанию представлена погода в Oita за последнюю неделю. Архивные данные за месяц целиком и за предыдущие месяцы, начиная с января 2011 года, Вы можете получить, выбрав интересующий диапазон дат из раскрывающегося списка и нажав кнопку "Ввод!".


*Определитесь, кто Вы:
робот инопланетянин человек

Внимание! Время в таблицах - всемирное. Для получения местного времени необходимо прибавить поправку, которая в Oita равна 9 ч.

Смотрите также архив погоды в соседних городах и на ближайших метеорологических станциях:

Погода в Hita (Япония) (64 км)
Погода в Aso-San (Япония) (64 км)
Погода в Nobeoka (Япония) (72 км)
Погода в Uwajima (Япония) (87 км)
Погода в Kumamoto (Япония) (97 км)
Погода в Iizuka (Япония) (97 км)
Погода в Shimonoseki (Япония) (102 км)
Погода в Yamaguchi (Япония) (106 км)
Погода в Sukumo (Япония) (107 км)
Погода в Fukuoka (Япония) (121 км)

Пояснения к столбцам:

Ветер - указаны скорость ветра в м/с - средняя за 10 мин, порывы в срок и между сроками (в фигурных скобках) и направление, откуда дует ветер: С - северный, СВ - северо-восточный, В - восточный, ЮВ - юго-восточный, Ю - южный, ЮЗ - юго-западный, З - западный, СЗ - северо-западный.
Видимость - горизонтальная дальность видимости в метрах или километрах. При видимости от 1 до 10 км при отсутствии осадков обычно наблюдается дымка, при ухудшении видимости до 1 км и менее - туман. В сухую погоду видимость может ухудшаться дымом, пылью или мглою.
Явления - указаны атмосферные явления, наблюдавшиеся в срок или в последний час перед сроком; фигурными скобками обозначены явления, наблюдавшиеся между сроками (за 1-3 часа до срока); квадратными скобками обозначены град или гололедные отложения с указанием их диаметра в мм.
Облачность - указаны через наклонную черту общая и нижняя облачность в баллах и высота нижней границы облаков в метрах; квадратными скобками обозначены формы облаков: Ci - перистые, Cs - перисто-слоистые, Cc - перисто-кучевые, Ac - высококучевые, As - высокослоистые, Sc - слоисто-кучевые, Ns - слоисто-дождевые, Cu - кучевые, Cb - кучево-дождевые. Подробнее классификацию облаков см. в Атласе облаков (PDF).
T - Температура воздуха - температура, измеренная на высоте 2 м над землей.
Td - Температура точки росы - температура, при понижении до которой содержащийся в воздухе водяной пар достигнет насыщения.
f - Относительная влажность воздуха - влажноcть воздуха, измеренная на высоте 2 м над землей.
Te - Эффективная температура - температура, которую ощущает одетый по сезону человек в тени. Характеристика душности погоды. При расчете учитывается влияние влажности воздуха и скорости ветра на теплоощущения человека.
Tes - Эффективная температура на солнце - температура, которую ощущает человек, с поправкой на солнечный нагрев. Характеристика знойности погоды. Зависит от высоты солнца над горизонтом, облачности и скорости ветра. Ночью, в пасмурную погоду, а также при ветре 12 м/с и более поправка равна нулю.
P - Атмосферное давление - приведенное к уровню моря атмосферное давление.
Po - Атмосферное давление - измеренное на уровне метеостанции атмосферное давление.
Tmin - Минимальная температура - минимум температуры воздуха на высоте 2 м над землей.
Tmax - Максимальная температура - максимум температуры воздуха на высоте 2 м над землей.
R - Количество осадков - Количество выпавших осадков за период времени, мм. При наведении курсора мыши на число - период времени, за который выпало указанное количество осадков.
R24 - Количество осадков - Количество выпавших осадков за 24 часа, мм.
S - Снежный покров - Высота снежного покрова, см. При наведении курсора мыши на число - состояние снежного покрова и степень покрытия местности в баллах.